Location: Wien
(48.2082°N, 16.3738°E)
Time: 12:03:48
(UTC+02:00)

Tiros 1 despin weight - Pass Details

Date: 18 September 2024
Orbit: 573 x 615 km, 48.2° (Epoch: 06 October)

Event Time Altitude Azimuth Distance (km) Brightness Sun altitude
Rises 04:32:49 0° 253° (WSW) 2,867 - -20.5°
Reaches altitude 10° 04:35:07 10° 252° (WSW) 1,969 - -20.1°
Exits shadow 04:38:27 48° 241° (WSW) 805 ? -19.6°
Maximum altitude 04:39:39 77° 167° (SSE) 637 ? -19.5°
Drops below altitude 10° 04:44:12 10° 82° (E) 1,983 ? -18.8°
Sets 04:46:31 0° 81° (E) 2,889 ? -18.4°
